Weather Roundup
Issued by NWS Springfield, MO

Home | Current Version | Previous Version | Text Only | Print | Product List | Glossary On
Versions: 1 2 3 4 5 6 7 8 9 10 11 12 13 14 15 16 17 18 19 20 21 22 23 24 25 26 27 28 29 30 31 32 33 34 35 36 37 38 39 40 41 42 43 44 45 46 47 48 49 50
000
NZUS99 KSGF 081307
HRRSGF

HOURLY WEATHER
NATIONAL WEATHER SERVICE SPRINGFIELD MO
700 AM CST MON FEB 08 2016

......SGF CWA......

CITY           SKY/WX    TMP DP  RH WIND       PRES   REMARKS
SPRINGFIELD    MOCLDY    34  16  47 NW22G38   29.96S WCI  22
JOPLIN         CLOUDY    34  17  50 W17G25    30.06S WCI  23
WEST PLAINS    CLOUDY    35  17  47 NW13G26   29.89S WCI  26
ROLLA          CLOUDY    28  22  78 NW18G30   29.85R WCI  15
OSAGE BEACH    CLOUDY    32  18  55 NW7G24    29.92F WCI  26
BRANSON        MOCLDY    34  18  51 NW20G31   29.98R WCI  22

......SURROUNDING SGF CWA......

CITY           SKY/WX    TMP DP  RH WIND       PRES   REMARKS
CHANUTE        CLOUDY    34  19  54 NW16      30.08F WCI  24
PARSONS        MOCLDY    36  19  50 NW12G24   30.11S WCI  28
COFFEYVILLE    MOCLDY    36  18  48 NW15      30.13R WCI  27
EMPORIA        MOCLDY    34  18  52 NW24G35   30.08S WCI  21
GROVE OK       PTCLDY    36  19  51 W8        30.11F WCI  29
ROGERS AR      PTCLDY    33  16  49 NW14G24   30.05S WCI  23
SILOAM SPRINGS PTCLDY    34  12  40 NW15G23   30.09R WCI  24
HARRISON AR    CLOUDY    34  19  54 NW15G29   29.97S WCI  24
NEAR YELLVILLE PTCLDY    37  18  44 NW14      29.95R WCI  29

......KANSAS AND MISSOURI......

CITY           SKY/WX    TMP DP  RH WIND       PRES   REMARKS
KANSAS CTY INT MOCLDY    31  17  56 NW21G44   29.98R WCI  18
DOWNTOWN KC    MOCLDY    33  16  49 NW21G32   30.00R WCI  21
COLUMBIA       CLOUDY    29  19  66 NW21G38   29.87S WCI  16
SEDALIA        FLURRIES  30  23  75 NW18G25   29.96R WCI  18
ST JOSEPH      CLOUDY    31  19  61 NW18G28   30.01R WCI  19
ST LOUIS       FLURRIES  33  18  53 W21G31    29.80R WCI  21
SPIRIT OF STL  CLOUDY    32  15  49 NW20G26   29.82R WCI  20
KIRKSVILLE     LGT SNOW  22  13  68 NW23G32   29.87R WCI   6
WICHITA        PTCLDY    32  17  54 NW22      30.19S WCI  19
TOPEKA         LGT SNOW  32  25  75 N16       30.07R WCI  21
OLATHE         CLOUDY    31  23  72 NW20G25   30.01R WCI  19

......TENNESSEE......

CITY           SKY/WX    TMP DP  RH WIND       PRES   REMARKS
MEMPHIS        PTCLDY    39  23  52 W5        29.92F
NASHVILLE      PTCLDY    41  26  55 W7        29.79R

......ARKANSAS.......

CITY           SKY/WX    TMP DP  RH WIND       PRES   REMARKS
FAYETTEVILLE   CLEAR     32  17  54 NW15G22   30.07S WCI  22
FT SMITH       CLEAR     39  14  36 NW20G35   30.13S WCI  29
LITTLE ROCK    CLEAR     42  20  41 W16G23    30.01S

......OKLAHOMA.......

CITY           SKY/WX    TMP DP  RH WIND       PRES   REMARKS
TULSA          PTCLDY    35  21  56 W10       30.18S WCI  27
PONCA CITY     CLEAR     32  19  58 NW12G21   30.21S WCI  23
MCALESTER      PTCLDY    38  18  44 NW9       30.23R WCI  31
OKLAHOMA CITY  CLEAR     36  16  44 NW16      30.28S WCI  26

......IOWA............

CITY           SKY/WX    TMP DP  RH WIND       PRES   REMARKS
DES MOINES     LGT SNOW  18  11  74 NW22G29   29.91R BLWGSNOWWCI   1
QUAD CITIES    CLOUDY    21  12  68 NW15G24   29.75R HAZE    WCI   8

......ILLINOIS........

CITY           SKY/WX    TMP DP  RH WIND       PRES   REMARKS
QUINCY         LGT SNOW  24  21  88 NW18      29.81R VSB 3/4 WCI  10
CHICAGO        LGT SNOW  30  27  88 NW10      29.62R FOG     WCI  21



USA.gov is the U.S. government's official web portal to all federal, state and local government web resources and services.